Tracking 26321 objects as of 28-Nov-2022
HD Live streaming from Space Station
objects crossing your sky now

NOAA 16 DEB

Track NOAA 16 DEB now!
10-day predictions


NORAD ID: 41151
Int'l Code: 2000-055CJ
Perigee: 846.9 km
Apogee: 952.5 km
Inclination: 98.8 °
Period: 102.8 minutes
Semi major axis: 7270 km
RCS: Unknown
Launch date: September 21, 2000
Source: United States (US)
Launch site: AIR FORCE WESTERN TEST RANGE (AFWTR)

Note: This is SATELLITE DEBRIS
aabbcc
Your satellite tracking list
Your tracking list is empty




NASA's NSSDC Master Catalog

Two Line Element Set (TLE):
1 41151U 00055CJ  22330.85927253  .00002227  00000-0  14977-2 0  9996
2 41151  98.8200 346.5085 0072641  42.3895 318.2851 14.00357593356686
Source of the keplerian elements: AFSPC